When you browse on this site, cookies collect data to enhance your experience and personalize the content and advertising you see.
Visit our Privacy Policy to learn more. By continuing to use the site, you agree to this use of cookies and data.
  • en Suisse
  • Liste des pays
  • À 7 jours
  • Température de l'eau
  • Carte météo
  • Widgets météo
  • user-avatar
    Se connecter

    Météo par heure à Brecon

    Ce jour, 27 Mai, Mercredi

    Heure Température Précipitation Vent Pression Humidité
    00:00 +14°C° 0 mm 2 m/s 761 mmHg 95%
    01:00 +14°C° 0 mm 2 m/s 760 mmHg 95%
    02:00 +14°C° 0 mm 2 m/s 760 mmHg 94%
    03:00 +13°C° 0 mm 2 m/s 760 mmHg 94%
    04:00 +14°C° 0 mm 2 m/s 760 mmHg 92%
    05:00 +14°C° 0 mm 2 m/s 760 mmHg 90%
    06:00 +14°C° 0 mm 2 m/s 760 mmHg 88%
    07:00 +16°C° 0 mm 2 m/s 760 mmHg 83%
    08:00 +17°C° 0 mm 2 m/s 761 mmHg 78%
    09:00 +19°C° 0 mm 2 m/s 761 mmHg 74%
    10:00 +19°C° 0 mm 2 m/s 761 mmHg 72%
    11:00 +20°C° 0 mm 2 m/s 761 mmHg 71%
    12:00 +21°C° 0 mm 2 m/s 760 mmHg 69%
    13:00 +21°C° 0 mm 2 m/s 760 mmHg 69%
    14:00 +21°C° 0 mm 2 m/s 760 mmHg 69%
    15:00 +21°C° 0 mm 2 m/s 760 mmHg 69%
    16:00 +21°C° 0 mm 2 m/s 760 mmHg 71%
    17:00 +20°C° 0 mm 2 m/s 760 mmHg 73%
    18:00 +20°C° 0 mm 2 m/s 760 mmHg 75%
    19:00 +18°C° 0 mm 2 m/s 760 mmHg 77%
    20:00 +16°C° 0 mm 2 m/s 760 mmHg 79%
    21:00 +15°C° 0 mm 2 m/s 760 mmHg 80%
    22:00 +13°C° 0 mm 3 m/s 760 mmHg 81%
    23:00 +12°C° 0 mm 3 m/s 760 mmHg 82%

    Demain, 28 Mai, Jeudi

    Heure Température Précipitation Vent Pression Humidité
    00:00 +12°C° 0 mm 3 m/s 760 mmHg 82%
    01:00 +11°C° 0 mm 3 m/s 760 mmHg 86%
    02:00 +11°C° 0 mm 3 m/s 759 mmHg 89%
    03:00 +11°C° 0 mm 3 m/s 759 mmHg 92%
    04:00 +11°C° 0 mm 3 m/s 759 mmHg 92%
    05:00 +12°C° 0 mm 3 m/s 759 mmHg 92%
    06:00 +13°C° 0 mm 2 m/s 759 mmHg 91%
    07:00 +14°C° 0 mm 3 m/s 759 mmHg 86%
    08:00 +16°C° 0 mm 3 m/s 759 mmHg 81%
    09:00 +17°C° 0 mm 4 m/s 759 mmHg 76%
    10:00 +18°C° 0 mm 4 m/s 759 mmHg 73%
    11:00 +19°C° 0 mm 4 m/s 759 mmHg 70%
    12:00 +20°C° 0 mm 4 m/s 758 mmHg 67%
    13:00 +20°C° 0 mm 4 m/s 758 mmHg 67%
    14:00 +20°C° 0 mm 4 m/s 758 mmHg 66%
    15:00 +20°C° 0 mm 4 m/s 757 mmHg 65%
    16:00 +20°C° 0 mm 4 m/s 757 mmHg 67%
    17:00 +19°C° 0 mm 4 m/s 757 mmHg 70%
    18:00 +19°C° 0 mm 4 m/s 756 mmHg 72%
    19:00 +17°C° 0 mm 4 m/s 756 mmHg 76%
    20:00 +14°C° 0 mm 4 m/s 756 mmHg 79%
    21:00 +13°C° 0 mm 4 m/s 756 mmHg 83%
    22:00 +12°C° 0 mm 3 m/s 756 mmHg 83%
    23:00 +11°C° 0 mm 3 m/s 756 mmHg 84%

    Après-demain, 29 Mai, Vendredi

    Heure Température Précipitation Vent Pression Humidité
    00:00 +9°C° 0 mm 3 m/s 756 mmHg 84%
    01:00 +9°C° 0 mm 3 m/s 755 mmHg 82%
    02:00 +8°C° 0 mm 3 m/s 755 mmHg 81%
    03:00 +8°C° 0 mm 3 m/s 755 mmHg 80%
    04:00 +8°C° 0 mm 3 m/s 755 mmHg 78%
    05:00 +9°C° 0 mm 3 m/s 755 mmHg 76%
    06:00 +10°C° 0 mm 3 m/s 754 mmHg 74%
    07:00 +12°C° 0 mm 4 m/s 754 mmHg 70%
    08:00 +13°C° 0 mm 4 m/s 754 mmHg 67%
    09:00 +15°C° 0 mm 4 m/s 754 mmHg 63%
    10:00 +16°C° 0 mm 5 m/s 754 mmHg 61%
    11:00 +17°C° 0 mm 5 m/s 754 mmHg 60%
    12:00 +19°C° 0 mm 5 m/s 754 mmHg 59%
    13:00 +19°C° 0 mm 5 m/s 754 mmHg 60%
    14:00 +20°C° 0 mm 5 m/s 753 mmHg 61%
    15:00 +20°C° 0 mm 4 m/s 753 mmHg 62%
    16:00 +20°C° 0 mm 4 m/s 753 mmHg 65%
    17:00 +19°C° 0 mm 4 m/s 752 mmHg 68%
    18:00 +19°C° 0 mm 4 m/s 752 mmHg 72%
    19:00 +17°C° 0 mm 3 m/s 752 mmHg 77%
    20:00 +14°C° 0 mm 3 m/s 752 mmHg 82%
    21:00 +12°C° 0 mm 3 m/s 752 mmHg 87%
    22:00 +11°C° 0 mm 3 m/s 752 mmHg 86%
    23:00 +10°C° 0 mm 3 m/s 752 mmHg 86%

    30 Mai, Samedi

    Heure Température Précipitation Vent Pression Humidité
    00:00 +9°C° 0 mm 2 m/s 752 mmHg 86%
    01:00 +8°C° 0 mm 2 m/s 752 mmHg 83%
    02:00 +8°C° 0 mm 3 m/s 752 mmHg 80%
    03:00 +7°C° 0 mm 3 m/s 752 mmHg 77%
    04:00 +8°C° 0 mm 3 m/s 752 mmHg 75%
    05:00 +9°C° 0 mm 3 m/s 752 mmHg 73%
    06:00 +9°C° 0 mm 3 m/s 752 mmHg 71%
    07:00 +11°C° 0 mm 3 m/s 752 mmHg 69%
    08:00 +13°C° 0 mm 3 m/s 752 mmHg 68%
    09:00 +14°C° 0 mm 3 m/s 752 mmHg 67%
    10:00 +17°C° 0 mm 3 m/s 752 mmHg 65%
    11:00 +18°C° 0 mm 4 m/s 752 mmHg 63%
    12:00 +19°C° 0 mm 4 m/s 752 mmHg 62%
    13:00 +20°C° 0 mm 3 m/s 752 mmHg 61%
    14:00 +20°C° 0 mm 3 m/s 751 mmHg 60%
    15:00 +21°C° 0 mm 2 m/s 751 mmHg 59%
    16:00 +20°C° 0 mm 2 m/s 751 mmHg 63%
    17:00 +20°C° 0 mm 2 m/s 751 mmHg 67%
    18:00 +20°C° 0 mm 2 m/s 751 mmHg 71%
    19:00 +18°C° 0 mm 2 m/s 751 mmHg 76%
    20:00 +17°C° 0 mm 2 m/s 751 mmHg 81%
    21:00 +15°C° 0 mm 2 m/s 751 mmHg 86%
    22:00 +14°C° 0 mm 2 m/s 751 mmHg 87%
    23:00 +13°C° 0 mm 2 m/s 751 mmHg 87%

    31 Mai, Dimanche

    Heure Température Précipitation Vent Pression Humidité
    00:00 +13°C° 0 mm 2 m/s 751 mmHg 88%
    01:00 +12°C° 0 mm 2 m/s 751 mmHg 88%
    02:00 +12°C° 0 mm 2 m/s 751 mmHg 88%
    03:00 +10°C° 0 mm 2 m/s 751 mmHg 88%
    04:00 +12°C° 0 mm 2 m/s 751 mmHg 86%
    05:00 +13°C° 0 mm 2 m/s 751 mmHg 85%
    06:00 +13°C° 0 mm 2 m/s 751 mmHg 83%
    07:00 +15°C° 0 mm 2 m/s 751 mmHg 77%
    08:00 +16°C° 0 mm 3 m/s 751 mmHg 71%
    09:00 +17°C° 0 mm 3 m/s 751 mmHg 64%
    10:00 +18°C° 0 mm 3 m/s 751 mmHg 62%
    11:00 +19°C° 0 mm 3 m/s 751 mmHg 60%
    12:00 +20°C° 0 mm 3 m/s 751 mmHg 58%
    13:00 +20°C° 0 mm 3 m/s 751 mmHg 57%
    14:00 +21°C° 0 mm 2 m/s 751 mmHg 57%
    15:00 +21°C° 0 mm 2 m/s 750 mmHg 57%
    16:00 +20°C° 0 mm 2 m/s 750 mmHg 61%
    17:00 +20°C° 0 mm 2 m/s 750 mmHg 65%
    18:00 +20°C° 0 mm 2 m/s 750 mmHg 69%
    19:00 +19°C° 0 mm 1 m/s 750 mmHg 74%
    20:00 +16°C° 0 mm 1 m/s 750 mmHg 78%
    21:00 +14°C° 0 mm 1 m/s 750 mmHg 83%
    22:00 +14°C° 0 mm 1 m/s 750 mmHg 84%
    23:00 +13°C° 0 mm 1 m/s 749 mmHg 85%

    1 Juin, Lundi

    Heure Température Précipitation Vent Pression Humidité
    00:00 +12°C° 0 mm 1 m/s 749 mmHg 87%
    01:00 +12°C° 0 mm 1 m/s 749 mmHg 87%
    02:00 +11°C° 0 mm 1 m/s 749 mmHg 87%
    03:00 +11°C° 0 mm 1 m/s 749 mmHg 87%
    04:00 +12°C° 0 mm 2 m/s 749 mmHg 85%
    05:00 +12°C° 0 mm 2 m/s 748 mmHg 84%
    06:00 +13°C° 0 mm 2 m/s 748 mmHg 83%
    07:00 +14°C° 0 mm 3 m/s 748 mmHg 77%
    08:00 +16°C° 0 mm 3 m/s 748 mmHg 71%
    09:00 +17°C° 0 mm 3 m/s 748 mmHg 65%
    10:00 +18°C° 0 mm 3 m/s 748 mmHg 63%
    11:00 +19°C° 0 mm 3 m/s 748 mmHg 61%
    12:00 +20°C° 0 mm 3 m/s 747 mmHg 59%
    13:00 +20°C° 0 mm 3 m/s 747 mmHg 59%
    14:00 +20°C° 0 mm 3 m/s 747 mmHg 59%
    15:00 +21°C° 0 mm 3 m/s 746 mmHg 59%
    16:00 +20°C° 0 mm 3 m/s 746 mmHg 63%
    17:00 +20°C° 0 mm 3 m/s 746 mmHg 66%
    18:00 +20°C° 0 mm 3 m/s 746 mmHg 70%
    19:00 +18°C° 0 mm 3 m/s 746 mmHg 75%
    20:00 +16°C° 0 mm 3 m/s 746 mmHg 81%
    21:00 +13°C° 0 mm 3 m/s 746 mmHg 87%
    22:00 +13°C° 0 mm 3 m/s 746 mmHg 88%
    23:00 +12°C° 0 mm 3 m/s 746 mmHg 89%
    Voir plus